x

8774770 - Rockport, Tx (rcpt2) Weather Station

5:18pm - Fri 23rd Jun 2017 All times are CDT. -5 hours from GMT.

  • Wind
    16mph, 22mph gusts
  • Sea Temp 88°f
  • Air Temp 86°f
  • Sea Pressure 1008.2mb
  • 8774770 - Rockport, Tx
  • 8774770 - Rockport, Tx

More Historic Weather Station data

Upgrade to MSW Pro to gain access to the past 30 days of data for over 8000 Wavebouys and Weather Stations around the globe.

Join Pro

Comparision Forecast

View Surf forecast
   
Fri 06/23 5:18pm 16 22 mph 1008.2mb 88f 86f
5:12pm 16 21 mph 1008.3mb 88f 86f
5:06pm 14 20 mph 1008.3mb 88f 86f
5:00pm 14 20 mph 1008.3mb 88f 86f
4:54pm 15 20 mph 1008.4mb 88f 86f
4:48pm 16 21 mph 1008.4mb 88f 86f
4:42pm 17 21 mph 1008.4mb 88f 86f
4:36pm 15 20 mph 1008.5mb 88f 86f
4:30pm 14 18 mph 1008.5mb 88f 86f
4:24pm 16 18 mph 1008.6mb 88f 86f
4:18pm 15 20 mph 1008.6mb 88f 86f
4:12pm 16 22 mph 1008.6mb 88f 86f
4:06pm 17 21 mph 1008.5mb 88f 86f
4:00pm 18 22 mph 1008.6mb 88f 86f
3:54pm 17 22 mph 1008.7mb 88f 86f
3:48pm 17 22 mph 1008.8mb 88f 86f
3:42pm 18 22 mph 1008.8mb 88f 86f
3:36pm 18 21 mph 1008.9mb 88f 86f
3:30pm 15 22 mph 1009.1mb 88f 86f
3:24pm 18 22 mph 1009.1mb 88f 86f
3:18pm 15 18 mph 1009.1mb 88f 86f
3:12pm 15 21 mph 1009.1mb 88f 86f
3:06pm 17 22 mph 1009.1mb 88f 86f
3:00pm 17 21 mph 1009.3mb 88f 86f
2:54pm 17 21 mph 1009.3mb 88f 86f
2:48pm 15 20 mph 1009.3mb 88f 86f
2:42pm 18 21 mph 1009.2mb 88f 86f
2:36pm 17 21 mph 1009.2mb 88f 85f
2:30pm 16 20 mph 1009.3mb 88f 86f
2:24pm 16 21 mph 1009.3mb 88f 86f
2:18pm 18 22 mph 1009.3mb 88f 85f
2:12pm 16 22 mph 1009.3mb 88f 86f
2:06pm 18 24 mph 1009.2mb 88f 85f
2:00pm 18 22 mph 1009.1mb 88f 85f
1:54pm 16 21 mph 1009.2mb 88f 86f
1:48pm 17 21 mph 1009.3mb 88f 85f
1:42pm 18 21 mph 1009.2mb 88f 85f
1:36pm 18 22 mph 1009.3mb 88f 85f
1:30pm 20 23 mph 1009.4mb 88f 85f
1:24pm 18 22 mph 1009.4mb 88f 85f
1:18pm 17 20 mph 1009.4mb 88f 85f
1:12pm 18 23 mph 1009.4mb 88f 85f
1:06pm 18 22 mph 1009.4mb 88f 85f
1:00pm 17 22 mph 1009.4mb 88f 85f
12:54pm 17 22 mph 1009.3mb 88f 85f
12:48pm 18 21 mph 1009.3mb 88f 85f
12:42pm 18 23 mph 1009.2mb 87f 85f
12:36pm 18 21 mph 1009.2mb 87f 85f
12:30pm 17 21 mph 1009.2mb 87f 85f
12:24pm 18 22 mph 1009.2mb 87f 85f
12:18pm 16 21 mph 1009.2mb 87f 85f
12:12pm 16 21 mph 1009.2mb 87f 85f
12:06pm 18 21 mph 1009.2mb 87f 85f
12:00pm 17 20 mph 1009.2mb 87f 85f
11:54am 17 20 mph 1009.2mb 87f 85f
11:48am 17 20 mph 1009.1mb 87f 85f
11:42am 16 20 mph 1008.9mb 87f 85f
11:36am 17 20 mph 1008.9mb 87f 85f
11:30am 14 20 mph 1008.9mb 87f 85f
11:24am 16 20 mph 1008.8mb 87f 85f
11:18am 16 20 mph 1008.8mb 87f 85f
11:12am 16 20 mph 1008.7mb 87f 85f
11:06am 16 21 mph 1008.7mb 87f 85f
11:00am 16 22 mph 1008.6mb 87f 85f
10:54am 18 22 mph 1008.5mb 87f 85f
10:48am 20 22 mph 1008.4mb 87f 85f
10:42am 18 23 mph 1008.2mb 87f 85f
10:36am 20 23 mph 1008.2mb 87f 85f
10:30am 20 23 mph 1008.3mb 87f 85f
10:24am 21 24 mph 1008.4mb 87f 85f
10:18am 18 23 mph 1008.5mb 87f 85f
10:12am 21 24 mph 1008.5mb 87f 85f
10:06am 21 25 mph 1008.4mb 87f 85f
10:00am 18 23 mph 1008.4mb 87f 85f
9:54am 20 24 mph 1008.4mb 87f 85f
9:48am 20 23 mph 1008.4mb 87f 85f
9:42am 18 25 mph 1008.3mb 87f 85f
9:36am 20 24 mph 1008.3mb 87f 85f
9:30am 20 23 mph 1008.3mb 87f 85f
9:24am 21 25 mph 1008.3mb 87f 85f
9:18am 22 25 mph 1008.3mb 87f 85f
9:12am 22 25 mph 1008.3mb 87f 85f
9:06am 22 25 mph 1008.3mb 87f 85f
9:00am 22 28 mph 1008.2mb 87f 85f
8:54am 21 25 mph 1008.2mb 87f 85f
8:48am 22 26 mph 1008.2mb 87f 85f
8:42am 23 26 mph 1008.1mb 87f 85f
8:36am 21 24 mph 1008mb 87f 85f
8:30am 21 25 mph 1007.9mb 87f 85f
8:24am 20 24 mph 1008mb 87f 85f
8:18am 23 25 mph 1008mb 87f 84f
8:12am 21 25 mph 1008mb 87f 85f
8:06am 23 26 mph 1007.9mb 87f 84f
8:00am 23 26 mph 1007.9mb 87f 84f
7:54am 22 26 mph 1007.9mb 87f 84f
7:48am 22 26 mph 1007.8mb 87f 84f
7:42am 20 25 mph 1007.7mb 87f 85f
7:36am 22 26 mph 1007.7mb 87f 84f
7:30am 20 25 mph 1007.6mb 87f 85f
7:24am 20 24 mph 1007.5mb 87f 84f
7:18am 21 25 mph 1007.4mb 87f 84f
7:12am 22 25 mph 1007.3mb 87f 84f
7:06am 21 24 mph 1007.2mb 87f 84f
7:00am 23 26 mph 1007.2mb 87f 84f
6:54am 21 26 mph 1007.1mb 87f 84f
6:48am 23 29 mph 1007mb 87f 84f
6:42am 22 26 mph 1007mb 87f 85f
6:36am 22 25 mph 1007mb 87f 84f
6:30am 21 25 mph 1007mb 87f 85f
6:24am 23 29 mph 1006.9mb 87f 84f
6:18am 24 28 mph 1006.8mb 87f 85f
6:12am 23 26 mph 1006.8mb 87f 84f
6:06am 22 29 mph 1006.7mb 87f 85f
6:00am 22 28 mph 1006.6mb 87f 85f
5:54am 22 29 mph 1006.6mb 87f 85f
5:48am 25 28 mph 1006.5mb 87f 84f
5:42am 24 29 mph 1006.5mb 87f 85f
5:36am 22 26 mph 1006.5mb 87f 85f
5:30am 22 29 mph 1006.6mb 87f 85f
5:24am 23 28 mph 1006.5mb 87f 85f
5:18am 24 26 mph 1006.5mb 87f 84f
5:12am 23 28 mph 1006.5mb 87f 85f
5:06am 23 30 mph 1006.4mb 87f 85f
5:00am 23 26 mph 1006.4mb 87f 84f
4:54am 23 29 mph 1006.5mb 87f 85f
4:48am 24 29 mph 1006.4mb 87f 85f
4:42am 23 28 mph 1006.4mb 87f 85f
4:36am 24 30 mph 1006.3mb 87f 85f
4:30am 25 31 mph 1006.2mb 87f 85f
4:24am 24 30 mph 1006.2mb 87f 84f
4:18am 23 29 mph 1006.2mb 87f 85f
4:12am 24 29 mph 1006.2mb 87f 85f
4:06am 23 28 mph 1006.2mb 87f 85f
4:00am 22 28 mph 1006.2mb 87f 85f
3:54am 21 26 mph 1006.1mb 87f 85f
3:48am 24 29 mph 1006.1mb 88f 85f
3:42am 23 32 mph 1006mb 88f 85f
3:36am 25 31 mph 1006mb 88f 85f
3:30am 25 29 mph 1006.1mb 88f 85f
3:24am 22 29 mph 1006.1mb 88f 85f
3:18am 25 29 mph 1006.1mb 88f 85f
3:12am 25 29 mph 1006.1mb 88f 85f
3:06am 22 29 mph 1006.1mb 88f 85f
3:00am 25 29 mph 1006.1mb 88f 85f
2:54am 26 31 mph 1006.1mb 88f 85f
2:48am 23 28 mph 1006.2mb 88f 85f
2:42am 24 30 mph 1006.2mb 88f 85f
2:36am 23 29 mph 1006.3mb 88f 85f
2:30am 24 28 mph 1006.3mb 88f 85f
2:24am 21 25 mph 1006.3mb 88f 85f
2:18am 24 28 mph 1006.3mb 88f 85f
2:12am 23 30 mph 1006.2mb 88f 85f
2:06am 22 26 mph 1006.3mb 88f 85f
2:00am 20 26 mph 1006.3mb 88f 85f
1:48am 23 29 mph 1006.2mb - -
1:42am 22 26 mph 1006.1mb - -
1:36am 22 28 mph 1006mb - -
1:30am 24 28 mph 1006mb 88f 85f
1:24am 23 28 mph 1006mb 88f 85f
1:18am 22 29 mph 1005.9mb 88f 85f
1:12am 24 28 mph 1005.9mb 88f 85f
1:06am 24 26 mph 1005.9mb 88f 85f
1:00am 24 29 mph 1005.8mb 88f 85f
12:54am 25 28 mph 1005.8mb 88f 85f
12:48am 21 25 mph 1005.8mb 88f -
12:42am 22 26 mph 1005.8mb 88f -
12:36am 23 26 mph 1005.8mb 88f -
12:30am 24 28 mph 1005.8mb 88f 85f
12:24am 22 26 mph 1005.8mb 88f 85f
12:18am 21 26 mph 1005.7mb 88f 85f
12:12am 22 28 mph 1005.8mb 88f 85f
12:06am 21 26 mph 1005.7mb 88f 85f
12:00am 23 26 mph 1005.6mb 88f 85f
Thu 06/22 11:54pm 22 28 mph 1005.6mb 88f 85f
11:48pm 22 28 mph 1005.6mb 88f 85f
11:42pm 22 26 mph 1005.5mb 88f 85f
11:36pm 21 28 mph 1005.5mb 88f 85f
11:30pm 22 28 mph 1005.5mb 88f 85f
11:24pm 23 28 mph 1005.4mb 88f 85f
11:18pm 23 28 mph 1005.4mb 88f 85f
11:12pm 20 26 mph 1005.5mb 88f 85f
11:06pm 24 29 mph 1005.4mb 88f 85f
11:00pm 23 26 mph 1005.3mb 88f 85f
10:54pm 24 30 mph 1005.2mb 89f 85f
10:48pm 23 26 mph 1005.2mb 89f 85f
10:42pm 21 25 mph 1005.1mb 89f 85f
10:36pm 21 26 mph 1005mb 89f 85f
10:30pm 21 29 mph 1004.9mb 89f 85f
10:24pm 22 28 mph 1004.9mb 89f 85f
10:18pm 23 28 mph 1004.8mb 89f 85f
10:12pm 24 28 mph 1004.8mb 89f 85f
10:06pm 24 28 mph 1004.7mb 89f 85f
10:00pm 24 29 mph 1004.6mb 89f 85f
9:54pm 22 28 mph 1004.6mb 89f 85f
9:48pm 22 29 mph 1004.6mb 89f 85f
9:42pm 24 29 mph 1004.5mb 89f 85f
9:36pm 22 28 mph 1004.5mb 89f 85f
9:30pm 22 26 mph 1004.5mb 89f 85f
9:24pm 23 26 mph 1004.4mb 89f 85f
9:18pm 22 29 mph 1004.4mb 89f 85f
9:12pm 22 29 mph 1004.3mb 89f 85f
9:06pm 22 28 mph 1004.3mb 89f 85f
9:00pm 22 26 mph 1004.2mb 89f 85f
8:54pm 23 28 mph 1004.1mb 89f 85f
8:48pm 23 30 mph 1004.1mb 89f 85f
8:42pm 23 26 mph 1004.1mb 89f 85f
8:36pm 23 29 mph 1004.1mb 89f 85f
8:30pm 23 29 mph 1004.1mb 89f 85f
8:24pm 24 28 mph 1004.1mb 89f 85f
8:18pm 22 29 mph 1004.1mb 89f 85f
8:12pm 23 26 mph 1004.1mb 89f 85f
8:06pm 21 25 mph 1004.2mb 89f 86f
8:00pm 21 26 mph 1004.2mb 89f 86f
7:48pm 20 26 mph 1004.2mb 89f 86f
7:42pm 22 25 mph 1004.2mb 89f 86f
7:36pm 22 26 mph 1004.1mb 89f 86f
7:30pm 22 28 mph 1004.1mb 89f 86f
7:24pm 22 28 mph 1004mb 89f 86f
7:18pm 22 26 mph 1004mb 89f 86f
7:12pm 22 25 mph 1004mb 89f 86f
7:06pm 21 25 mph 1004mb 89f 86f
7:00pm 21 25 mph 1004mb 89f 86f
6:48pm 21 24 mph 1004mb 89f 86f
6:42pm 23 28 mph 1003.9mb 89f 86f
6:36pm 22 25 mph 1003.9mb 89f 86f
6:30pm 22 26 mph 1004mb 89f 86f
6:24pm 23 28 mph 1003.9mb 89f 86f
6:18pm 21 28 mph 1004mb 89f 86f
6:12pm 21 28 mph 1004mb 89f 86f
6:06pm 23 28 mph 1004mb 89f 86f
6:00pm 23 26 mph 1004mb 89f 86f
5:54pm 21 29 mph 1004mb 89f 86f
5:48pm 22 26 mph 1004.1mb 89f 86f
5:42pm 21 28 mph 1004.2mb 89f 86f
5:36pm 21 26 mph 1004.2mb 89f 86f
5:30pm 23 28 mph 1004.2mb 88f 86f
5:24pm 22 26 mph 1004.1mb 88f 86f
5:18pm 23 28 mph 1004.1mb 88f 86f
5:12pm 22 25 mph 1004.1mb 88f 86f
5:06pm 22 28 mph 1004.2mb 88f 86f
5:00pm 22 25 mph 1004.2mb 88f 86f
4:54pm 22 26 mph 1004.2mb 88f 86f
4:48pm 22 28 mph 1004.3mb 88f 86f
4:42pm 22 28 mph 1004.3mb 88f 86f
4:36pm 23 26 mph 1004.4mb 88f 86f
4:30pm 21 24 mph 1004.5mb 88f 86f
4:24pm 21 24 mph 1004.5mb 88f 86f
4:18pm 21 23 mph 1004.6mb 88f 86f
4:12pm 20 23 mph 1004.7mb 88f 86f
4:06pm 21 23 mph 1004.7mb 88f 86f
4:00pm 18 22 mph 1004.8mb 88f 86f
3:54pm 20 23 mph 1004.9mb 88f 86f
3:48pm 20 23 mph 1005mb 87f 86f
3:42pm 20 22 mph 1005.1mb 87f 85f
3:36pm 16 21 mph 1005.2mb 87f 86f
3:30pm 17 21 mph 1005.2mb 87f 86f
3:24pm 17 21 mph 1005.3mb 87f 86f
3:18pm 17 20 mph 1005.3mb 87f 86f
3:12pm 16 18 mph 1005.4mb 87f 86f
3:06pm 14 17 mph 1005.4mb 87f 86f
3:00pm 15 18 mph 1005.5mb 87f 86f
2:54pm 15 18 mph 1005.5mb 87f 85f
2:48pm 14 17 mph 1005.7mb 87f 86f
2:42pm 14 17 mph 1005.7mb 87f 86f
2:36pm 14 16 mph 1005.8mb 87f 86f
2:30pm 13 17 mph 1005.8mb 87f 86f
2:24pm 14 17 mph 1005.8mb 87f 86f
2:18pm 13 16 mph 1005.8mb 87f 86f
2:12pm 13 16 mph 1005.9mb 87f 86f
2:06pm 14 16 mph 1005.9mb 87f 86f
2:00pm 15 17 mph 1005.9mb 87f 85f
1:54pm 14 16 mph 1005.9mb 87f 85f
1:48pm 14 17 mph 1005.9mb 87f 85f
1:42pm 15 17 mph 1005.9mb 87f 86f
1:36pm 15 17 mph 1006mb 87f 86f
1:30pm 15 17 mph 1006mb 87f 85f
1:24pm 15 17 mph 1006.1mb 87f 85f
1:18pm 15 16 mph 1006mb 87f 85f
1:12pm 15 17 mph 1006mb 87f 85f
1:06pm 14 16 mph 1006mb 87f 85f
1:00pm 14 15 mph 1006mb 87f 86f
12:54pm 14 16 mph 1006mb 87f 86f
12:48pm 11 14 mph 1006.1mb 87f 86f
12:42pm 11 14 mph 1006.1mb 87f 86f
12:36pm 10 11 mph 1006.1mb 87f 86f
12:30pm 10 11 mph 1006.2mb 87f 86f
12:24pm 9 13 mph 1006.2mb 87f 86f
12:18pm 10 11 mph 1006.2mb 87f 85f
12:12pm 10 13 mph 1006.2mb 87f 85f
12:06pm 11 13 mph 1006.2mb 87f 85f
12:00pm 11 13 mph 1006.2mb 87f 85f
11:54am 7 10 mph 1006.2mb 87f 85f
11:48am 7 9 mph 1006.2mb 87f 86f
11:42am 7 9 mph 1006.3mb 87f 86f
11:36am 7 8 mph 1006.2mb 87f 85f
11:30am 7 9 mph 1006.1mb 87f 86f
11:24am 6 7 mph 1006.1mb 87f 85f
11:18am 7 8 mph 1006mb 87f 85f
11:12am 7 8 mph 1006mb 87f 85f
11:06am 5 7 mph 1006mb 87f 88f
11:00am 5 10 mph 1006mb 87f 87f
10:54am 5 9 mph 1006mb 87f 87f
10:48am 3 7 mph 1006mb 87f 87f
10:42am 3 9 mph 1006mb 87f 87f
10:36am 2 5 mph 1006mb 87f 86f
10:30am 3 7 mph 1006.1mb 87f 85f
10:24am 3 7 mph 1006.2mb 87f 85f
10:18am 5 8 mph 1006.3mb 86f 84f
10:12am 5 9 mph 1006.3mb 86f 84f
10:06am 6 8 mph 1006.4mb 86f 84f
10:00am 7 10 mph 1006.4mb 86f 84f
9:54am 6 9 mph 1006.4mb 86f 84f
9:48am 7 11 mph 1006.5mb 86f 83f
9:42am 8 11 mph 1006.5mb 86f 83f
9:36am 8 11 mph 1006.6mb 86f 83f
9:30am 6 11 mph 1006.6mb 86f 83f
9:24am 8 11 mph 1006.6mb 86f 82f
9:18am 6 10 mph 1006.5mb 86f 83f
9:12am 8 11 mph 1006.5mb 86f 83f
9:06am 8 11 mph 1006.5mb 86f 83f
9:00am 7 10 mph 1006.5mb 86f 83f
8:54am 7 10 mph 1006.4mb 86f 83f
8:48am 7 10 mph 1006.3mb 86f 82f
8:42am 6 8 mph 1006.2mb 86f 82f
8:36am 7 9 mph 1006.2mb 87f 82f
8:30am 7 9 mph 1006mb 87f 81f
8:24am 5 7 mph 1005.9mb 87f 81f
8:18am 6 7 mph 1005.8mb 87f 81f
8:12am 6 8 mph 1005.7mb 87f 81f
8:06am 7 9 mph 1005.7mb 87f 80f
8:00am 6 9 mph 1005.7mb 87f 80f
7:54am 5 7 mph 1005.7mb 87f 80f
7:48am 5 6 mph 1005.6mb 87f 80f
7:42am 3 8 mph 1005.5mb 87f 80f
7:36am 5 7 mph 1005.5mb 87f 80f
7:30am 6 8 mph 1005.4mb 87f 80f
7:24am 6 7 mph 1005.3mb 87f 79f
7:18am 5 8 mph 1005.4mb 87f 79f
7:12am 6 9 mph 1005.3mb 87f 79f
7:06am 6 8 mph 1005.3mb 87f 79f
7:00am 6 9 mph 1005.3mb 87f 79f
6:54am 6 8 mph 1005.1mb 87f 78f
6:48am 5 8 mph 1005.1mb 87f 78f
6:42am 6 8 mph 1005mb 87f 78f
6:36am 6 9 mph 1004.9mb 87f 78f
6:30am 6 8 mph 1004.8mb 87f 78f
6:24am 6 8 mph 1004.8mb 87f 78f
6:18am 6 9 mph 1004.8mb 87f 78f
6:12am 6 8 mph 1004.7mb 87f 78f
6:06am 6 7 mph 1004.7mb 87f 78f
6:00am 6 7 mph 1004.7mb 87f 78f
5:54am 5 7 mph 1004.8mb 87f 78f
5:48am 5 6 mph 1004.8mb 87f 78f
5:42am 5 6 mph 1004.8mb 87f 78f
5:36am 3 6 mph 1004.8mb 87f 78f
5:30am 5 7 mph 1004.8mb 87f 78f
5:24am 3 6 mph 1004.9mb 87f 78f
5:18am 5 6 mph 1004.9mb 87f 78f
5:12am 5 8 mph 1004.9mb 87f 78f
5:06am 5 6 mph 1004.9mb 87f 79f
5:00am 3 5 mph 1004.8mb 87f 79f
4:54am 3 5 mph 1004.7mb 87f 79f
4:48am 5 7 mph 1004.6mb 87f 79f
4:42am 5 7 mph 1004.6mb 87f 79f
4:36am 5 6 mph 1004.5mb 87f 79f
4:30am 5 6 mph 1004.4mb 87f 79f
4:24am 3 5 mph 1004.4mb 87f 79f
4:18am 3 6 mph 1004.4mb 87f 79f
4:12am 5 6 mph 1004.4mb 87f 79f
4:06am 5 7 mph 1004.3mb 87f 79f
4:00am 5 7 mph 1004.2mb 87f 79f
3:54am 5 6 mph 1004.2mb 87f 79f
3:48am 3 6 mph 1004.2mb 87f 79f
3:42am 3 6 mph 1004.1mb 87f 79f
3:36am 3 5 mph 1004.2mb 87f 79f
3:30am 3 6 mph 1004.1mb 87f 79f
3:24am 3 7 mph 1003.9mb 87f 79f
3:18am 5 6 mph 1003.9mb 87f 79f
3:12am 6 8 mph 1003.8mb 87f 79f
3:06am 6 7 mph 1003.8mb 87f 79f
3:00am 5 7 mph 1003.9mb 87f 80f
2:54am 5 6 mph 1004mb 87f 79f
2:48am 5 6 mph 1004mb 87f 79f
2:42am 5 6 mph 1004.1mb 87f 80f
2:36am 5 6 mph 1004.1mb 87f 80f
2:30am 3 6 mph 1004.1mb 87f 80f
2:24am 5 6 mph 1004.1mb 87f 80f
2:18am 3 5 mph 1004.1mb 87f 80f
2:12am 5 5 mph 1004.2mb 87f 80f
2:06am 3 5 mph 1004.2mb 87f 81f
2:00am 2 3 mph 1004.2mb 87f 81f
1:54am 2 2 mph 1004.2mb 87f 81f
1:48am 2 5 mph 1004.2mb - -
1:42am 2 5 mph 1004.3mb - -
1:36am 3 3 mph 1004.3mb - -
1:30am 2 3 mph 1004.4mb 87f 82f
1:24am 2 3 mph 1004.4mb 87f 82f
1:18am 2 5 mph 1004.5mb 87f 82f
1:12am 3 3 mph 1004.5mb 87f 83f
1:06am 2 3 mph 1004.5mb 87f 84f
1:00am 3 6 mph 1004.5mb 87f 84f
12:54am 2 6 mph 1004.5mb 87f 85f
12:48am 2 5 mph 1004.4mb 87f -
12:42am  -  5 mph 1004.4mb 87f -
12:36am 1 5 mph 1004.5mb 87f -
12:30am 3 8 mph 1004.5mb 87f 85f
12:24am 6 10 mph 1004.6mb 87f 85f
12:18am 2 9 mph 1004.5mb 87f 85f
12:12am 6 9 mph 1004.6mb 87f 85f
12:06am 8 13 mph 1004.6mb 87f 85f
12:00am 7 10 mph 1004.6mb 87f 85f
Wed 06/21 11:54pm 10 14 mph 1004.7mb 87f 85f
11:48pm 8 14 mph 1004.6mb 87f 85f
11:42pm 9 13 mph 1004.6mb 87f 86f
11:36pm 9 13 mph 1004.6mb 87f 86f
11:30pm 9 14 mph 1004.6mb 87f 86f
11:24pm 7 10 mph 1004.6mb 87f 86f
11:18pm 6 9 mph 1004.5mb 88f 85f
11:12pm 6 11 mph 1004.4mb 88f 86f
11:06pm 7 10 mph 1004.3mb 88f 86f
11:00pm 7 13 mph 1004.3mb 88f 86f
10:54pm 7 13 mph 1004.2mb 88f 86f
10:48pm 8 11 mph 1004.2mb 88f 86f
10:42pm 7 11 mph 1004.2mb 88f 86f
10:36pm 6 8 mph 1004.1mb 88f 86f
10:30pm 5 10 mph 1004mb 88f 86f
10:24pm 7 10 mph 1003.9mb 88f 86f
10:18pm 8 13 mph 1003.8mb 88f 87f
10:12pm 7 13 mph 1003.9mb 88f 87f
10:06pm 6 11 mph 1003.9mb 88f 87f
10:00pm 7 11 mph 1003.9mb 88f 87f
9:54pm 7 14 mph 1003.8mb 88f 87f
9:48pm 7 13 mph 1003.8mb 88f 87f
9:42pm 7 13 mph 1003.7mb 88f 87f
9:36pm 7 11 mph 1003.7mb 88f 87f
9:30pm 8 14 mph 1003.7mb 88f 88f
9:24pm 10 14 mph 1003.6mb 88f 88f
9:18pm 9 14 mph 1003.5mb 88f 88f
9:12pm 9 14 mph 1003.4mb 88f 88f
9:06pm 9 15 mph 1003.3mb 88f 88f
9:00pm 8 14 mph 1003.3mb 88f 88f
8:54pm 8 15 mph 1003.3mb 88f 88f
8:48pm 9 16 mph 1003.3mb 88f 89f
8:42pm 10 18 mph 1003.2mb 88f 89f
8:36pm 8 16 mph 1003.2mb 88f 89f
8:30pm 9 14 mph 1003.2mb 88f 89f
8:24pm 9 17 mph 1003.2mb 88f 89f
8:18pm 14 23 mph 1003.2mb 88f 90f
8:12pm 10 24 mph 1003.2mb 88f 90f
8:06pm 17 26 mph 1003.3mb 88f 90f
8:00pm 15 22 mph 1003.2mb 88f 90f
7:54pm 13 24 mph 1003.2mb 88f 91f
7:48pm 14 25 mph 1003.1mb 88f 91f
7:42pm 16 25 mph 1003.1mb 88f 91f
7:36pm 16 26 mph 1003mb 88f 91f
7:30pm 16 25 mph 1003mb 88f 92f
7:24pm 17 26 mph 1002.9mb 88f 92f
7:18pm 15 26 mph 1002.8mb 88f 92f
7:12pm 11 22 mph 1002.7mb 88f 93f
7:06pm 14 22 mph 1002.6mb 88f 93f
7:00pm 15 24 mph 1002.6mb 88f 94f
6:54pm 14 23 mph 1002.5mb 88f 95f
6:48pm 14 23 mph 1002.5mb 88f 94f
6:42pm 13 20 mph 1002.4mb 88f 95f
6:36pm 11 22 mph 1002.3mb 88f 96f
6:30pm 10 16 mph 1002.3mb 88f 96f
6:24pm 14 22 mph 1002.3mb 88f 96f
6:18pm 11 22 mph 1002.2mb 88f 96f
6:12pm 16 21 mph 1002.2mb 88f 95f
6:06pm 10 21 mph 1002.2mb 88f 96f
6:00pm 11 23 mph 1002.2mb 88f 96f
5:54pm 11 21 mph 1002.2mb 88f 96f
5:48pm 13 22 mph 1002.3mb 88f 96f
5:42pm 13 23 mph 1002.3mb 88f 96f
5:36pm 15 23 mph 1002.5mb 88f 96f
5:30pm 13 22 mph 1002.5mb 88f 96f
5:24pm 10 18 mph 1002.6mb 88f 96f
5:18pm 15 25 mph 1002.7mb 88f 96f
5:12pm 15 23 mph 1002.9mb 88f 95f
5:06pm 16 23 mph 1002.9mb 88f 96f
5:00pm 14 22 mph 1002.9mb 88f 95f
4:54pm 11 22 mph 1003mb 88f 96f
4:48pm 14 20 mph 1003.2mb 88f 96f
4:42pm 17 23 mph 1003.4mb 88f 95f
4:36pm 14 21 mph 1003.4mb 88f 95f
4:30pm 15 24 mph 1003.6mb 88f 96f
4:24pm 14 24 mph 1003.6mb 88f 95f
4:18pm 16 23 mph 1003.7mb 88f 95f
4:12pm 11 16 mph 1003.7mb 88f 96f
4:06pm 13 21 mph 1003.8mb 88f 96f
4:00pm 13 23 mph 1003.9mb 88f 95f
3:54pm 15 26 mph 1004mb 88f 95f
3:48pm 13 22 mph 1004.1mb 88f 95f
3:42pm 15 23 mph 1004.3mb 88f 94f
3:36pm 14 23 mph 1004.4mb 88f 95f
3:30pm 16 22 mph 1004.5mb 88f 95f
3:24pm 13 21 mph 1004.6mb 88f 95f
3:18pm 11 20 mph 1004.7mb 88f 95f
3:12pm 13 17 mph 1004.8mb 88f 96f
3:06pm 15 21 mph 1005mb 88f 95f
3:00pm 11 24 mph 1005.1mb 88f 95f
2:54pm 13 22 mph 1005.2mb 88f 94f
2:48pm 15 25 mph 1005.4mb 88f 94f
2:42pm 14 21 mph 1005.5mb 88f 94f
2:36pm 9 17 mph 1005.5mb 88f 94f
2:30pm 15 20 mph 1005.6mb 88f 94f
2:24pm 10 18 mph 1005.6mb 88f 93f
2:18pm 14 22 mph 1005.6mb 88f 93f
2:12pm 10 17 mph 1005.6mb 88f 92f
2:06pm 13 23 mph 1005.6mb 88f 93f
2:00pm 15 22 mph 1005.7mb 88f 93f
1:54pm 14 21 mph 1005.8mb 88f 92f
1:48pm 15 23 mph 1005.9mb 88f 93f
1:42pm 13 20 mph 1005.9mb 88f 92f
1:36pm 10 18 mph 1006mb 88f 92f
1:30pm 15 22 mph 1006.3mb 88f 91f
1:24pm 13 23 mph 1006.3mb 88f 92f
1:18pm 13 18 mph 1006.4mb 88f 92f
1:12pm 11 21 mph 1006.5mb 88f 92f
1:06pm 10 21 mph 1006.5mb 88f 92f
1:00pm 11 23 mph 1006.6mb 88f 92f
12:54pm 9 18 mph 1006.6mb 88f 92f
12:48pm 9 14 mph - 88f -
12:42pm 9 18 mph - 88f -
12:36pm 14 23 mph - 88f -
12:30pm 13 20 mph 1007mb 88f 91f
12:24pm 9 23 mph 1007.1mb 88f 91f
12:18pm 14 22 mph 1007.3mb 88f 91f
12:12pm 14 21 mph 1007.3mb 88f 91f
12:06pm 10 16 mph 1007.4mb 88f 90f
12:00pm 11 20 mph 1007.5mb 88f 89f
11:54am 16 24 mph 1007.7mb 88f 89f
11:48am 15 23 mph 1007.7mb 88f 89f
11:42am 10 17 mph 1007.7mb 88f 89f
11:36am 14 20 mph 1007.7mb 88f 88f
11:30am 10 21 mph 1007.8mb 88f 88f
11:24am 14 23 mph 1007.9mb 88f 88f
11:18am 11 22 mph 1007.9mb 88f 87f
11:12am 14 20 mph 1007.9mb 88f 87f
11:06am 13 22 mph 1007.9mb 88f 87f
11:00am 14 21 mph 1007.9mb 88f 87f
10:54am 14 21 mph 1007.9mb 88f 86f
10:48am 13 22 mph 1008mb 88f 86f
10:42am 9 18 mph 1008mb 88f 86f
10:36am 13 20 mph 1008mb 88f 85f
10:30am 14 21 mph 1008mb 88f 85f
10:24am 13 22 mph 1008mb 88f 85f
10:18am 11 22 mph 1007.9mb 88f 85f
10:12am 14 20 mph 1008.1mb 88f 85f
10:06am 13 21 mph 1008.1mb 88f 84f
10:00am 13 17 mph 1008.2mb 88f 84f
9:54am 10 18 mph 1008.2mb 88f 84f
9:48am 11 17 mph 1008.3mb 88f 84f
9:42am 10 17 mph 1008.2mb 88f 83f
9:36am 13 20 mph 1008.3mb 88f 83f
9:30am 11 17 mph 1008.3mb 88f 83f
9:24am 10 15 mph 1008.3mb 88f 83f
9:18am 11 16 mph 1008.3mb 88f 83f
9:12am 11 18 mph 1008.4mb 88f 82f
9:06am 11 16 mph 1008.5mb 88f 82f
9:00am 9 16 mph 1008.6mb 88f 82f
8:54am 10 17 mph 1008.6mb 88f 82f
8:48am 10 16 mph 1008.6mb 88f 82f
8:42am 9 15 mph 1008.5mb 88f 82f
8:36am 10 17 mph 1008.5mb 88f 82f
8:30am 9 16 mph 1008.6mb 88f 82f
8:24am 10 15 mph 1008.7mb 88f 81f
8:18am 9 15 mph 1008.6mb 88f 80f
8:12am 9 15 mph 1008.5mb 88f 80f
8:06am 9 15 mph 1008.5mb 88f 80f
8:00am 9 16 mph 1008.5mb 88f 80f
7:54am 9 14 mph 1008.6mb 88f 80f
7:48am 9 14 mph 1008.5mb 88f 79f
7:42am 9 14 mph 1008.4mb 88f 79f
7:36am 8 11 mph 1008.3mb 88f 79f
7:30am 8 14 mph 1008.3mb 88f 79f
7:24am 9 14 mph 1008.3mb 88f 79f
7:18am 7 11 mph 1008.3mb 88f 79f
7:12am 8 11 mph 1008.3mb 88f 79f
7:06am 8 11 mph 1008.3mb 88f 79f
7:00am 9 13 mph 1008.3mb 88f 79f
6:54am 7 13 mph 1008.3mb 88f 79f
6:48am 8 13 mph 1008.2mb 88f 79f
6:42am 7 13 mph 1008.3mb 88f 78f
6:36am 7 10 mph 1008.2mb 88f 78f
6:30am 7 11 mph 1008.1mb 88f 78f
6:24am 8 11 mph 1008mb 88f 78f
6:18am 8 11 mph 1008mb 88f 79f
6:12am 6 9 mph 1007.9mb 88f 79f
6:06am 6 9 mph 1008.1mb 88f 79f
6:00am 7 9 mph 1008.2mb 88f 79f
5:54am 8 11 mph 1008.2mb 88f 79f
5:48am 7 10 mph 1008.2mb 88f 79f
5:42am 8 11 mph 1008.2mb 88f 79f
5:36am 7 11 mph 1008.1mb 88f 80f
5:30am 7 11 mph 1008.2mb 88f 79f
5:24am 8 13 mph 1008.2mb 88f 80f
5:18am 6 10 mph 1008.2mb 88f 80f
5:12am 8 11 mph 1008.3mb 88f 80f
5:06am 7 9 mph 1008.3mb 88f 80f
5:00am 6 10 mph 1008.3mb 88f 80f
4:54am 7 11 mph 1008.3mb 88f 80f
4:48am 8 11 mph 1008.4mb 88f 80f
4:42am 7 9 mph 1008.4mb 88f 80f
4:36am 7 11 mph 1008.4mb 88f 80f
4:30am 7 9 mph 1008.5mb 88f 81f
4:24am 6 10 mph 1008.6mb 88f 81f
4:18am 6 8 mph 1008.6mb 88f 81f
4:12am 6 8 mph 1008.7mb 88f 81f
4:06am 7 10 mph 1008.7mb 88f 81f
4:00am 6 8 mph 1008.7mb 88f 81f
3:54am 6 7 mph 1008.8mb 88f 81f
3:48am 6 9 mph 1008.8mb 88f 81f
3:42am 6 8 mph 1008.8mb 88f 81f
3:36am 6 8 mph 1008.8mb 88f 81f
3:30am 7 9 mph 1008.9mb 88f 81f
3:24am 6 9 mph 1009mb 88f 81f
3:18am 6 8 mph 1009mb 88f 81f
3:12am 7 9 mph 1009.1mb 88f 81f
3:06am 6 9 mph 1009.1mb 88f 81f
3:00am 7 10 mph 1009.2mb 88f 81f
2:54am 7 9 mph 1009.3mb 88f 81f
2:48am 6 8 mph 1009.4mb 89f 82f
2:42am 6 8 mph 1009.4mb 89f 81f
2:36am 6 8 mph 1009.4mb 89f 82f
2:30am 6 7 mph 1009.4mb 89f 82f
2:24am 6 8 mph 1009.5mb 89f 82f
2:18am 6 8 mph 1009.6mb 89f 82f
2:12am 6 10 mph 1009.6mb 89f 83f
2:06am 6 10 mph 1009.5mb 89f 83f
2:00am 6 10 mph 1009.6mb 89f 83f
1:54am 8 13 mph 1009.8mb 89f 83f
1:48am 7 9 mph 1009.8mb 89f 84f
1:42am 6 13 mph 1009.8mb 89f 84f
1:36am 5 13 mph 1009.8mb 89f 85f
1:30am 5 15 mph 1009.8mb 89f 85f
1:24am 2 9 mph 1009.8mb 89f 85f
1:18am 2 14 mph 1009.8mb 89f 85f
1:12am 5 15 mph 1009.8mb 89f 85f
1:06am 2 10 mph 1009.9mb 89f 85f
1:00am 2 13 mph 1010mb 89f 85f
12:54am 2 10 mph 1010mb 89f 85f
12:48am 1 9 mph 1010mb 89f 86f
12:42am 5 13 mph 1010mb 89f 86f
12:36am 5 11 mph 1010mb 89f 86f
12:30am 2 9 mph 1010mb 89f 86f
12:24am 2 13 mph 1010mb 89f 86f
12:18am 1 10 mph 1010mb 89f 86f
12:12am 6 14 mph 1010mb 89f 86f
12:06am 3 11 mph 1010mb 89f 86f
12:00am 7 11 mph 1010.1mb 89f 86f
Tue 06/20 11:54pm 3 9 mph 1010.1mb 89f 86f
11:48pm 3 11 mph 1010.1mb 89f 86f
11:42pm 8 11 mph 1010mb 89f 86f
11:36pm 8 13 mph 1010mb 89f 86f
11:30pm 9 15 mph 1010mb 89f 86f
11:24pm 8 14 mph 1010mb 89f 86f
11:18pm 8 16 mph 1010mb 89f 86f
11:12pm 6 15 mph 1010mb 89f 86f
11:06pm 3 13 mph 1010mb 89f 85f
11:00pm 2 9 mph 1010mb 89f 86f
10:54pm 3 10 mph 1009.9mb 89f 86f
10:48pm 3 9 mph 1009.8mb 89f 86f
10:42pm 3 11 mph 1009.7mb 89f 85f
10:36pm 5 9 mph 1009.5mb 89f 85f
10:30pm 5 11 mph 1009.5mb 89f 85f
10:24pm 3 11 mph 1009.6mb 89f 85f
10:18pm 3 8 mph 1009.6mb 89f 85f
10:12pm 5 13 mph 1009.6mb 89f 85f
10:06pm 5 10 mph 1009.6mb 89f 85f
10:00pm 5 10 mph 1009.5mb 90f 85f
9:54pm 5 9 mph 1009.5mb 90f 85f
9:48pm 3 10 mph 1009.5mb 90f 85f
9:42pm 5 11 mph 1009.4mb 90f 85f
9:36pm 3 10 mph 1009.4mb 90f 85f
9:30pm 3 8 mph 1009.4mb 90f 85f
9:24pm 2 17 mph 1009.4mb 90f 85f
9:18pm 3 15 mph 1009.4mb 90f 85f
9:12pm 7 20 mph 1009.4mb 89f 86f
9:06pm 6 16 mph 1009.3mb 90f 86f
9:00pm 8 16 mph 1009.4mb 89f 86f
8:54pm 7 17 mph 1009.4mb 89f 86f
8:48pm 3 15 mph 1009.4mb 89f 86f
8:42pm 6 17 mph 1009.4mb 89f 86f
8:36pm 5 14 mph 1009.3mb 89f 86f
8:30pm 3 14 mph 1009.3mb 89f 86f
8:24pm 3 11 mph 1009.3mb 89f 86f
8:18pm 3 9 mph 1009.3mb 89f 86f
8:12pm 7 10 mph 1009.2mb 89f 86f
8:06pm 3 9 mph 1009.2mb 89f 86f
8:00pm 3 9 mph 1009.1mb 89f 86f
7:54pm 3 13 mph 1009.1mb 89f 86f
7:48pm 8 13 mph 1009.1mb 89f 86f
7:42pm 6 14 mph 1009mb 89f 86f
7:36pm 8 13 mph 1009mb 89f 86f
7:30pm 6 14 mph 1008.9mb 89f 86f
7:24pm 6 13 mph 1008.9mb 89f 86f
7:18pm 10 15 mph 1008.9mb 89f 86f
7:12pm 8 11 mph 1008.9mb 89f 87f
7:06pm 8 13 mph 1008.8mb 89f 87f
7:00pm 8 11 mph 1008.8mb 89f 87f
6:54pm 7 11 mph 1008.8mb 89f 88f
6:48pm 9 13 mph 1008.9mb 89f 88f
6:42pm 7 11 mph 1008.9mb 89f 88f
6:36pm 7 11 mph 1008.9mb 89f 88f
6:30pm 7 11 mph 1008.9mb 89f 88f
6:24pm 9 13 mph 1008.9mb 89f 87f
6:18pm 10 15 mph 1008.9mb 89f 88f
6:12pm 7 10 mph 1008.9mb 89f 88f
6:06pm 10 14 mph 1009mb 89f 88f
6:00pm 8 14 mph 1009mb 89f 89f
5:54pm 9 11 mph 1009mb 89f 89f
5:48pm 9 14 mph 1008.9mb 89f 89f
5:42pm 8 13 mph 1009mb 89f 89f
5:36pm 8 14 mph 1009mb 89f 89f
5:30pm 8 14 mph 1009.1mb 88f 89f
5:24pm 11 14 mph 1009mb 88f 89f
5:18pm 9 11 mph 1009mb 88f 89f
5:12pm 8 10 mph 1009mb 88f 90f
5:06pm 7 10 mph 1009mb 88f 89f
5:00pm 8 9 mph 1009.1mb 88f 90f
4:54pm 6 7 mph 1009.3mb 88f 89f
4:48pm 5 7 mph 1009.3mb 88f 90f
4:42pm 5 7 mph 1009.4mb 88f 89f
4:36pm 6 7 mph 1009.5mb 88f 89f
4:30pm 5 7 mph 1009.5mb 88f 90f
4:24pm 5 7 mph 1009.6mb 88f 89f
4:18pm 6 8 mph 1009.6mb 88f 88f
4:12pm 6 7 mph 1009.7mb 88f 88f
4:06pm 5 7 mph 1009.8mb 88f 88f
4:00pm 6 7 mph 1009.9mb 88f 87f
3:54pm 6 7 mph 1009.9mb 88f 87f
3:48pm 5 6 mph 1010mb 88f 89f
3:42pm 5 6 mph 1010.1mb 88f 89f
3:36pm 5 7 mph 1010.2mb 88f 89f
3:30pm 5 6 mph 1010.2mb 88f 89f
3:24pm 3 5 mph 1010.3mb 87f 89f
3:18pm 3 6 mph 1010.4mb 87f 89f
3:12pm 5 7 mph 1010.5mb 87f 89f
3:06pm 6 8 mph 1010.5mb 87f 88f
3:00pm 7 9 mph 1010.6mb 87f 88f
2:54pm 8 9 mph 1010.7mb 87f 87f
2:48pm 6 11 mph 1010.8mb 87f 87f
2:42pm 10 15 mph 1010.9mb 87f 85f
2:36pm 13 17 mph 1011.2mb 87f 86f
2:30pm 14 20 mph 1011.2mb 87f 87f
2:24pm 1 7 mph 1011.1mb 87f 90f
2:18pm 5 7 mph 1011.1mb 87f 90f
2:12pm 5 7 mph 1011.2mb 87f 89f
2:06pm 6 7 mph 1011.3mb 87f 90f
2:00pm 6 7 mph 1011.4mb 87f 90f
1:54pm 5 7 mph 1011.5mb 87f 90f
1:48pm 5 7 mph 1011.6mb 87f 90f
1:42pm 2 6 mph 1011.7mb 87f 90f
1:36pm 3 6 mph 1011.8mb 87f 90f
1:30pm 2 6 mph 1012mb 87f 90f
1:24pm 6 7 mph 1012.1mb 87f 89f
1:18pm 2 7 mph 1012.1mb 87f 89f
1:12pm 2 5 mph 1012.1mb 87f 89f
1:06pm 5 6 mph 1012.3mb 87f 89f
1:00pm 3 6 mph 1012.4mb 87f 89f
12:54pm 5 6 mph 1012.5mb 87f 89f
12:48pm 2 8 mph 1012.5mb 87f 89f
12:42pm 6 9 mph 1012.5mb 87f 88f
12:36pm 6 9 mph 1012.6mb 87f 89f
12:30pm 2 8 mph 1012.6mb 87f 90f
12:24pm 3 10 mph 1012.7mb 87f 92f
12:18pm 6 10 mph 1012.7mb 87f 90f
12:12pm 6 9 mph 1012.7mb 87f 91f
12:06pm 3 9 mph 1012.8mb 87f 92f
12:00pm 5 9 mph 1012.9mb 87f 91f
11:54am 3 9 mph 1012.9mb 87f 91f
11:48am 2 8 mph 1012.8mb 87f 91f
11:42am 3 11 mph 1012.9mb 87f 90f
11:36am 5 8 mph 1013mb 87f 89f
11:30am 7 11 mph 1013mb 87f 89f
11:24am 3 8 mph 1013mb 87f 90f
11:18am 2 10 mph 1013.1mb 87f 90f
11:12am 2 9 mph 1013.1mb 87f 89f
11:06am 2 8 mph 1013.1mb 87f 89f
11:00am 3 7 mph 1013.2mb 87f 87f
10:54am 5 7 mph 1013.1mb 87f 86f
10:48am 6 9 mph 1013.1mb 87f 86f
10:42am 8 11 mph 1013.2mb 87f 86f
10:36am 6 10 mph 1013.2mb 87f 86f
10:30am 7 10 mph 1013.2mb 87f 86f
10:24am 7 9 mph 1013.2mb 87f 86f
10:18am 6 10 mph 1013.2mb 87f 85f
10:12am 7 10 mph 1013.2mb 87f 85f
10:06am 7 11 mph 1013.1mb 87f 85f
10:00am 9 13 mph 1013.1mb 87f 85f
9:54am 10 14 mph 1013.1mb 87f 84f
9:48am 8 13 mph 1013mb 87f 85f
9:42am 7 14 mph 1013mb 87f 84f
9:36am 7 10 mph 1013mb 87f 84f
9:30am 9 14 mph 1013mb 87f 84f
9:24am 9 13 mph 1012.9mb 87f 84f
9:18am 8 13 mph 1012.8mb 87f 83f
9:12am 9 14 mph 1012.7mb 87f 83f
9:06am 9 14 mph 1012.7mb 87f 83f
9:00am 9 13 mph 1012.6mb 87f 83f
8:54am 9 13 mph 1012.6mb 87f 82f
8:48am 9 14 mph 1012.6mb 87f 82f
8:42am 7 10 mph 1012.5mb 87f 82f
8:36am 8 13 mph 1012.5mb 87f 82f
8:30am 8 11 mph 1012.4mb 87f 82f
8:24am 8 13 mph 1012.4mb 87f 82f
8:18am 9 14 mph 1012.3mb 87f 82f
8:12am 8 10 mph 1012.3mb 87f 81f
8:06am 9 13 mph 1012.3mb 87f 81f
8:00am 7 10 mph 1012.2mb 87f 81f
7:54am 7 10 mph 1012.2mb 86f 80f
7:48am 6 11 mph 1012.2mb 86f 80f
7:42am 6 10 mph 1012.1mb 87f 80f
7:36am 7 9 mph 1012mb 86f 80f
7:30am 8 10 mph 1012mb 86f 80f
7:24am 6 8 mph 1011.9mb 86f 80f
7:18am 7 9 mph 1011.9mb 87f 80f
7:12am 6 9 mph 1011.8mb 87f 80f
7:06am 6 8 mph 1011.8mb 87f 80f
7:00am 6 8 mph 1011.7mb 87f 79f
6:54am 5 7 mph 1011.7mb 87f 79f
6:48am 6 7 mph 1011.6mb 87f 80f
6:42am 5 7 mph 1011.6mb 87f 80f
6:36am 5 6 mph 1011.6mb 87f 80f
6:30am 5 6 mph 1011.6mb 87f 80f
6:24am 5 7 mph 1011.7mb 87f 80f
6:18am 3 6 mph 1011.7mb 87f 79f
6:12am 3 7 mph 1011.6mb 87f 79f
6:06am 5 6 mph 1011.6mb 87f 80f
6:00am 5 6 mph 1011.7mb 87f 80f
5:54am 5 6 mph 1011.7mb 87f 80f
5:48am 3 6 mph 1011.6mb 87f 80f
5:42am 3 3 mph 1011.6mb 87f 80f
5:36am 3 5 mph 1011.6mb 87f 80f
5:30am 3 3 mph 1011.6mb 87f 80f
5:24am 2 2 mph 1011.6mb 87f 80f
5:18am 2 5 mph 1011.5mb 87f 80f
5:12am 3 5 mph 1011.5mb 87f 81f
5:06am 1 3 mph 1011.6mb 87f 81f
5:00am 1 2 mph 1011.6mb 87f 81f
4:54am  -  2 mph 1011.5mb 87f 81f
4:48am 2 2 mph 1011.6mb 87f 82f
4:42am 2 3 mph 1011.7mb 87f 82f
4:36am  -  2 mph 1011.7mb 87f 83f
4:30am 1 2 mph 1011.6mb 87f 82f
4:24am  -  2 mph 1011.7mb 87f 83f
4:18am  -  3 mph 1011.7mb 87f 83f
4:12am  -  3 mph 1011.8mb 87f 83f
4:06am 3 7 mph 1011.7mb 87f 83f
4:00am 1 6 mph 1011.7mb 87f 83f
3:54am 1 3 mph 1011.8mb 87f 83f
3:48am  -  5 mph 1011.8mb 87f 83f
3:42am 3 5 mph 1011.7mb 87f 83f
3:36am 2 5 mph 1011.7mb 87f 83f
3:30am  -  3 mph 1011.8mb 87f 83f
3:24am 3 6 mph 1011.8mb 87f 83f
3:18am 1 5 mph 1011.8mb 87f 83f
3:12am 3 5 mph 1011.9mb 87f 83f
3:06am 3 6 mph 1011.9mb 87f 83f
3:00am 3 6 mph 1011.9mb 87f 83f
2:54am 3 7 mph 1012mb 87f 83f
2:48am 5 7 mph 1012mb 87f 83f
2:42am 5 7 mph 1012.1mb 87f 83f
2:36am 5 7 mph 1012.1mb 87f 83f
2:30am 6 8 mph 1012.1mb 87f 83f
2:24am 6 8 mph 1012.1mb 87f 83f
2:18am 6 7 mph 1012.1mb 87f 83f
2:12am 6 7 mph 1012.1mb 87f 83f
2:06am 6 9 mph 1012.2mb 87f 83f
2:00am 5 8 mph 1012.1mb 87f 83f
1:54am 7 9 mph 1012.3mb 87f 83f
1:48am 6 9 mph 1012.4mb - -
1:42am 7 10 mph 1012.5mb - -
1:36am 6 9 mph 1012.5mb - -
1:30am 7 10 mph 1012.6mb 87f 84f
1:24am 8 10 mph 1012.7mb 87f 83f
1:18am 8 10 mph 1012.8mb 87f 83f
1:12am 6 9 mph 1012.8mb 87f 83f
1:06am 8 10 mph 1012.9mb 87f 83f
1:00am 7 10 mph 1012.9mb 87f 84f
12:54am 7 10 mph 1012.9mb 87f 83f
12:48am 7 9 mph 1013mb 87f 84f
12:42am 6 9 mph 1013.1mb 88f 84f
12:36am 6 9 mph 1013.2mb 88f 84f
12:30am 6 9 mph 1013.2mb 88f 83f
12:24am 6 8 mph 1013.3mb 88f 83f
12:18am 5 7 mph 1013.3mb 88f 84f
12:12am 6 7 mph 1013.3mb 88f 84f
12:06am 2 7 mph 1013.4mb 88f 84f
12:00am 5 8 mph 1013.5mb 88f 84f
Mon 06/19 11:54pm 6 8 mph 1013.4mb 88f 84f
11:48pm 7 9 mph 1013.3mb 88f 84f
11:42pm 8 11 mph 1013.3mb 88f 84f
11:36pm 7 10 mph 1013.3mb 88f 84f
11:30pm 6 9 mph 1013.2mb 88f 84f
11:24pm 6 10 mph 1013.2mb 88f 84f